Namest Nad Oslav, Czech Republic

1:35 PM CEST on June 27, 2017 (GMT +0200)
Namest

Weather History for LKNA - March, 2013

Change the Weather History Date:

Monday, March 25, 2013

  Actual Average Record
Temperature  
Mean Temperature 20 °F -  
Max Temperature 23 °F - - ()
Min Temperature 17 °F - - ()
Degree Days  
Heating Degree Days 45    
Moisture  
Dew Point 15 °F    
Average Humidity 77    
Maximum Humidity 93    
Minimum Humidity 54    
Precipitation  
Precipitation 0.00 in - - ()
Sea Level Pressure  
Sea Level Pressure 29.90 in    
Wind  
Wind Speed 8 mph ()    
Max Wind Speed 14 mph    
Max Gust Speed -    
Visibility 3.1 miles    
Events Snow    
T = Trace of Precipitation, MM = Missing Value Source: Averaged Metar Reports

Daily Weather History Graph

Daily Weather History Graph

Search for Another Location

Airport or City:

Trip Planner

Search our weather history database for the weather conditions in past years. The results will help you decide how hot, cold, wet, or windy it might be!

Date:

Astronomy

Mar. 25, 2013 Rise Set
Actual Time 5:47 AM CET 6:16 PM CET
Civil Twilight 5:15 AM CET 6:47 PM CET
Nautical Twilight 4:38 AM CET 7:25 PM CET
Astronomical Twilight 3:58 AM CET 8:05 PM CET
Moon 4:22 PM CET (3/25) 4:30 AM CET (3/25)
Length of Visible Light 13h 32m
Length of Day
12h 28m
Waxing Gibbous, 95% of the Moon is Illuminated
Mar 25
Waxing Gibbous
Mar 27
Full
Apr 3
Last Quarter
Apr 10
New
Apr 18
First Quarter

Hourly Weather History & Observations

Time (CET) Temp. Windchill Dew Point Humidity Pressure Visibility Wind Dir Wind Speed Gust Speed Precip Events Conditions
12:00 AM 23.0 °F 13.1 °F 8.6 °F 54% 30.01 in - East 9.2 mph - N/A   Clear
1:00 AM 21.2 °F 11.7 °F 8.6 °F 58% 30.01 in - East 8.1 mph - N/A   Clear
2:00 AM 21.2 °F 13.6 °F 10.4 °F 63% 29.98 in - East 5.8 mph - N/A   Clear
3:00 AM 21.2 °F 12.6 °F 10.4 °F 63% 29.98 in - East 6.9 mph - N/A   Clear
4:00 AM 21.2 °F 11.7 °F 10.4 °F 63% 29.95 in - East 8.1 mph - N/A   Clear
5:00 AM 21.2 °F 10.9 °F 10.4 °F 63% 29.95 in 5.6 mi East 9.2 mph - N/A Snow Light Snow
5:12 AM 21.2 °F 10.1 °F 12.2 °F 68% 29.95 in 2.5 mi East 10.4 mph - N/A Snow Light Snow
5:45 AM 19.4 °F 8.6 °F 15.8 °F 86% 29.95 in 1.1 mi East 9.2 mph - N/A Snow Light Snow
6:00 AM 19.4 °F 10.4 °F 15.8 °F 86% 29.95 in 0.9 mi East 6.9 mph - N/A Snow Light Snow
7:00 AM 17.6 °F 8.2 °F 15.8 °F 93% 29.95 in 0.9 mi ENE 6.9 mph - N/A Snow Light Snow
8:00 AM 17.6 °F 6.4 °F 15.8 °F 93% 29.95 in 0.9 mi ENE 9.2 mph - N/A Snow Light Snow
9:00 AM 19.4 °F 9.5 °F 15.8 °F 86% 29.95 in 1.2 mi East 8.1 mph - N/A Snow Light Snow
10:00 AM 19.4 °F 8.6 °F 17.6 °F 93% 29.95 in 0.9 mi East 9.2 mph - N/A Snow Light Snow
11:00 AM 21.2 °F 10.9 °F 17.6 °F 86% 29.92 in 0.7 mi East 9.2 mph - N/A Snow Light Snow
12:00 PM 23.0 °F 13.1 °F 19.4 °F 86% 29.92 in 0.7 mi East 9.2 mph - N/A Snow Light Snow
1:00 PM 23.0 °F 11.7 °F 19.4 °F 86% 29.89 in 0.9 mi ENE 11.5 mph - N/A Snow Light Snow
2:00 PM 23.0 °F 12.4 °F 19.4 °F 86% 29.86 in 1.0 mi ENE 10.4 mph - N/A Snow Light Snow
3:00 PM 23.0 °F 11.7 °F 19.4 °F 86% 29.86 in 1.0 mi ENE 11.5 mph - N/A Snow Light Snow
4:00 PM 23.0 °F 11.7 °F 19.4 °F 86% 29.86 in 4.3 mi ENE 11.5 mph - N/A   Overcast
4:14 PM 23.0 °F 11.1 °F 19.4 °F 86% 29.86 in 6.2 mi ENE 12.7 mph - N/A   Overcast
5:00 PM 23.0 °F 10.6 °F 17.6 °F 80% 29.83 in 6.2 mi ENE 13.8 mph - N/A   Overcast
6:00 PM 23.0 °F 11.1 °F 15.8 °F 74% 29.83 in 5.6 mi NE 12.7 mph - N/A Snow Light Snow
7:00 PM 23.0 °F 14.7 °F 15.8 °F 74% 29.83 in 3.7 mi NNE 6.9 mph - N/A Snow Light Snow
8:00 PM 23.0 °F 12.4 °F 15.8 °F 74% 29.83 in 6.2 mi NE 10.4 mph - N/A Snow Light Snow
9:00 PM 23.0 °F 10.6 °F 14.0 °F 68% 29.80 in 6.2 mi NE 13.8 mph - N/A Snow Light Snow
10:00 PM 23.0 °F 11.7 °F 12.2 °F 63% 29.80 in 6.2 mi ENE 11.5 mph - N/A Snow Light Snow
11:00 PM 23.0 °F 11.1 °F 12.2 °F 63% 29.80 in 6.2 mi NE 12.7 mph - N/A Snow Light Snow